User: anonymous   Login
Location: Terra Rouge Observatory
(46.0000°N, 62.7500°W)
Time: 17:39:59
(UTC-04:00)
Language:

Landsat 5 - Orbit

View from above orbital plane
View from above orbital plane
View from above satellite
View from above satellite

Ground track
Ground track

The orbit data is extracted from the following two-line orbital elements,

1 14780U 84021A   14355.22336308  .00005615  00000-0  54955-3 0  5163
2 14780 098.0419 075.6675 0093304 279.6355 136.2756 14.89489931640450
Epoch (UTC): 21 December 2014 05:21:38
Eccentricity: 0.0093304
inclination: 98.0419°
perigee height: 534 km
apogee height: 664 km
right ascension of ascending node: 75.6675°
argument of perigee: 279.6355°
revolutions per day: 14.89489931
mean anomaly at epoch: 136.2756°
orbit number at epoch: 64045

The dashed part of the orbit path shows where the satellite is in the earth's shadow,  

DLR